Hourly Weather Roundup
Issued by NWS Central Illinois

Home | Current Version | Previous Version | Text Only | Print | Product List | Glossary On
Versions: 1 2 3 4 5 6 7 8 9 10 11 12 13 14 15 16 17 18 19 20 21 22 23 24 25 26 27 28 29 30 31 32 33 34 35 36 37 38 39 40 41 42 43 44 45 46 47 48 49 50
000
NZUS43 KILX 051410
HWRILX

AREA WEATHER ROUNDUP
NATIONAL WEATHER SERVICE, LINCOLN IL
800 AM CST FRI FEB 05 2016


CITY           SKY/WX    TMP DP  RH WIND       PRES   REMARKS
BLOOMINGTON    CLOUDY    27  23  84 NW15      30.38R WCI  15
CHAMPAIGN      CLOUDY    26  22  84 NW12      30.37R WCI  16
DANVILLE       MOSUNNY   26  22  85 W3        30.33S
DECATUR        MOCLDY    26  20  77 NW8       30.39R WCI  18
EFFINGHAM      SUNNY     29  25  85 W6        30.41R WCI  23
FLORA          SUNNY     30  22  73 SW3       30.41R
GALESBURG      CLOUDY    25  20  81 NW8       30.39R WCI  16
JACKSONVILLE   CLOUDY    26  23  87 W5        30.41R WCI  21
LACON          CLOUDY    28  20  73 NW8       30.38S WCI  19
LAWRENCEVILLE  SUNNY     27  22  81 S5        30.41R WCI  22
LITCHFIELD     CLOUDY    26  22  87 N5        30.41R WCI  20
$$


CITY           SKY/WX    TMP DP  RH WIND       PRES   REMARKS
LINCOLN        CLOUDY    29  23  79 NW7       30.40R WCI  21
MACOMB         PTCLDY    23  20  89 CALM      30.42S
MATTOON        SUNNY     27  22  81 NW9       30.37R WCI  18
MT CARMEL AP   SUNNY     30  21  69 CALM      30.41R
OLNEY-NOBLE AP SUNNY     28  21  74 S3        30.41R
PARIS          SUNNY     28  22  81 SW6       30.38R WCI  21
PEORIA         CLOUDY    27  19  72 VRB7      30.40R WCI  19
PONTIAC        CLOUDY    30  25  84 NW10      30.38R WCI  21
RANTOUL        CLOUDY    28  24  84 NW9       30.36S WCI  19
ROBINSON       SUNNY     26  21  82 S3        30.41R
SPRINGFIELD    CLOUDY    25  22  88 W3        30.41R
TAYLORVILLE    CLOUDY    27  23  86 NW8       30.41R WCI  18
$$

...REGIONAL REPORTS...


CITY           SKY/WX    TMP DP  RH WIND       PRES   REMARKS
CHICAGO O`HARE CLOUDY    29  25  85 N10       30.32R WCI  20
KANKAKEE       CLOUDY    29  24  83 W7        30.36R WCI  22
MOLINE         CLOUDY    26  17  68 N5        30.39R WCI  20
MOUNT STERLING PTCLDY    23  20  89 NW8       30.40R WCI  14
MOUNT VERNON   SUNNY     25  19  80 CALM      30.41R
PITTSFIELD     CLOUDY    24  22  91 W3        30.43R
QUINCY         CLOUDY    22  19  89 NW7       30.41R WCI  13
ROCKFORD       CLOUDY    26  19  74 N8        30.38R WCI  18
$$


CITY           SKY/WX    TMP DP  RH WIND       PRES   REMARKS
BURLINGTON     PTCLDY    21  18  88 NW5       30.40R WCI  15
CEDAR RAPIDS   PTCLDY    14  12  92 W3        30.38R
DES MOINES     CLOUDY    16  13  88 CALM      30.40R FOG
KIRKSVILLE     CLOUDY    19  15  84 CALM      30.41R
OTTUMWA        CLOUDY    17  15  92 NW3       30.40R
ST LOUIS       MOCLDY    29  21  72 CALM      30.43R
$$


CITY           SKY/WX    TMP DP  RH WIND       PRES   REMARKS
TERRE HAUTE    SUNNY     27  19  72 CALM      30.39R
EVANSVILLE     SUNNY     32  21  64 S5        30.43S WCI  27
INDIANAPOLIS   MOSUNNY   24  18  77 S6        30.37R WCI  17
LAFAYETTE      MOSUNNY   25  19  78 SW3       30.36R
MADISON        CLOUDY    21  16  81 NW5       30.35R WCI  15
MILWAUKEE      MOCLDY    25  19  78 W7        30.34R WCI  17
$$





USA.gov is the U.S. government's official web portal to all federal, state and local government web resources and services.